TAM3904 SBSP-SBRJ

Flight info

Callsign TAM3904
Flight time 0h 53m
Altitude 29000
Route NIBRU UZ171 KEVUN
Aircraft A319/M-SDE3FGHIRWY/LB1

Departure

Time 2026-05-06 19:07
Airport Congonhas–Deputado Freitas Nobre Airport (SBSP)

Arrival

Time 2026-05-06 20:00
Airport Santos Dumont Airport (SBRJ)
Time Latitude Longitude Altitude Speed Heading
2026-05-06 18:32 -23.62690 -46.65847 2601 ft 0 kts 237°
2026-05-06 19:01 -23.62679 -46.65827 2601 ft 4 kts 252°
2026-05-06 19:01 -23.62677 -46.65801 2601 ft 4 kts 299°
2026-05-06 19:02 -23.62685 -46.65790 2601 ft 0 kts 328°
2026-05-06 19:03 -23.62684 -46.65790 2601 ft 1 kts 328°
2026-05-06 19:03 -23.62664 -46.65805 2601 ft 4 kts 328°
2026-05-06 19:04 -23.62637 -46.65823 2601 ft 5 kts 328°
2026-05-06 19:04 -23.62593 -46.65854 2601 ft 11 kts 328°
2026-05-06 19:04 -23.62508 -46.65913 2601 ft 16 kts 327°
2026-05-06 19:04 -23.62409 -46.65982 2600 ft 18 kts 328°
2026-05-06 19:05 -23.62293 -46.66041 2600 ft 19 kts 351°
2026-05-06 19:05 -23.62172 -46.66088 2599 ft 18 kts 327°
2026-05-06 19:05 -23.62089 -46.66137 2596 ft 14 kts 351°
2026-05-06 19:05 -23.62045 -46.66080 2583 ft 10 kts 127°
2026-05-06 19:06 -23.62061 -46.66067 2596 ft 0 kts 147°
2026-05-06 19:06 -23.62176 -46.65987 2599 ft 55 kts 147°
2026-05-06 19:06 -23.62717 -46.65610 2607 ft 129 kts 147°
2026-05-06 19:06 -23.63557 -46.65034 3042 ft 142 kts 144°
2026-05-06 19:07 -23.64390 -46.64398 3679 ft 150 kts 135°
2026-05-06 19:07 -23.64988 -46.63413 4109 ft 167 kts 116°
2026-05-06 19:07 -23.65568 -46.62224 4373 ft 190 kts 117°
2026-05-06 19:07 -23.66235 -46.60874 4627 ft 216 kts 117°
2026-05-06 19:08 -23.66992 -46.59348 5249 ft 241 kts 117°
2026-05-06 19:08 -23.67829 -46.57669 5756 ft 263 kts 117°
2026-05-06 19:08 -23.68728 -46.55877 6484 ft 274 kts 117°
2026-05-06 19:08 -23.69658 -46.54040 7306 ft 279 kts 117°
2026-05-06 19:09 -23.70605 -46.52172 8149 ft 284 kts 117°
2026-05-06 19:09 -23.71445 -46.50205 8995 ft 288 kts 106°
2026-05-06 19:09 -23.71790 -46.48047 9945 ft 290 kts 90°
2026-05-06 19:09 -23.71617 -46.45839 10727 ft 301 kts 79°
2026-05-06 19:10 -23.71283 -46.43496 11197 ft 321 kts 80°
2026-05-06 19:10 -23.70926 -46.41054 11945 ft 329 kts 81°
2026-05-06 19:10 -23.70565 -46.38576 12860 ft 333 kts 81°
2026-05-06 19:10 -23.70204 -46.36071 13655 ft 336 kts 82°
2026-05-06 19:11 -23.69843 -46.33527 14245 ft 341 kts 82°
2026-05-06 19:11 -23.69476 -46.30956 14843 ft 345 kts 82°
2026-05-06 19:11 -23.69102 -46.28358 15439 ft 349 kts 82°
2026-05-06 19:11 -23.68726 -46.25725 16015 ft 353 kts 83°
2026-05-06 19:12 -23.68347 -46.23055 16604 ft 358 kts 83°
2026-05-06 19:12 -23.67964 -46.20358 17191 ft 362 kts 83°
2026-05-06 19:12 -23.67576 -46.17634 17781 ft 366 kts 83°
2026-05-06 19:12 -23.67179 -46.14871 18369 ft 371 kts 83°
2026-05-06 19:13 -23.66779 -46.12077 18878 ft 375 kts 83°
2026-05-06 19:13 -23.66377 -46.09255 19400 ft 379 kts 83°
2026-05-06 19:13 -23.65970 -46.06397 19932 ft 383 kts 83°
2026-05-06 19:13 -23.65558 -46.03515 20473 ft 386 kts 83°
2026-05-06 19:14 -23.65140 -46.00607 21005 ft 390 kts 83°
2026-05-06 19:14 -23.64715 -45.97664 21513 ft 395 kts 83°
2026-05-06 19:14 -23.64286 -45.94690 22046 ft 399 kts 83°
2026-05-06 19:14 -23.63851 -45.91694 22568 ft 402 kts 83°
2026-05-06 19:15 -23.63409 -45.88663 23067 ft 406 kts 83°
2026-05-06 19:15 -23.62964 -45.85603 23582 ft 411 kts 83°
2026-05-06 19:15 -23.62517 -45.82513 24042 ft 415 kts 83°
2026-05-06 19:15 -23.62066 -45.79393 24467 ft 418 kts 83°
2026-05-06 19:16 -23.61611 -45.76251 24898 ft 422 kts 83°
2026-05-06 19:16 -23.61151 -45.73079 25328 ft 425 kts 83°
2026-05-06 19:16 -23.60686 -45.69882 25751 ft 429 kts 84°
2026-05-06 19:16 -23.60215 -45.66656 26159 ft 432 kts 84°
2026-05-06 19:17 -23.59746 -45.63453 26563 ft 436 kts 84°
2026-05-06 19:17 -23.59268 -45.60182 26972 ft 439 kts 84°
2026-05-06 19:17 -23.58787 -45.56889 27108 ft 439 kts 84°
2026-05-06 19:17 -23.58308 -45.53659 27136 ft 424 kts 84°
2026-05-06 19:18 -23.57842 -45.50540 27135 ft 410 kts 84°
2026-05-06 19:18 -23.57388 -45.47511 27138 ft 400 kts 84°
2026-05-06 19:18 -23.56888 -45.44541 27141 ft 398 kts 82°
2026-05-06 19:18 -23.56302 -45.41594 27141 ft 398 kts 80°
2026-05-06 19:19 -23.55665 -45.38660 27143 ft 398 kts 79°
2026-05-06 19:19 -23.55010 -45.35732 27145 ft 397 kts 79°
2026-05-06 19:19 -23.54355 -45.32810 27145 ft 397 kts 79°
2026-05-06 19:19 -23.53709 -45.29880 27140 ft 398 kts 79°
2026-05-06 19:20 -23.53074 -45.26949 27141 ft 397 kts 80°
2026-05-06 19:20 -23.52449 -45.24023 27137 ft 396 kts 80°
2026-05-06 19:20 -23.51829 -45.21098 27133 ft 396 kts 80°
2026-05-06 19:20 -23.51211 -45.18172 27139 ft 396 kts 80°
2026-05-06 19:21 -23.50590 -45.15245 26959 ft 397 kts 80°
2026-05-06 19:21 -23.49969 -45.12322 26715 ft 396 kts 80°
2026-05-06 19:21 -23.49339 -45.09363 26472 ft 395 kts 79°
2026-05-06 19:21 -23.48724 -45.06487 26232 ft 395 kts 79°
2026-05-06 19:22 -23.48092 -45.03539 25996 ft 393 kts 79°
2026-05-06 19:22 -23.47473 -45.00657 25719 ft 389 kts 79°
2026-05-06 19:22 -23.46857 -44.97793 25306 ft 388 kts 79°
2026-05-06 19:22 -23.46243 -44.94941 24888 ft 386 kts 79°
2026-05-06 19:23 -23.45625 -44.92105 24477 ft 384 kts 78°
2026-05-06 19:23 -23.45002 -44.89286 24076 ft 382 kts 78°
2026-05-06 19:23 -23.44375 -44.86480 23649 ft 380 kts 77°
2026-05-06 19:23 -23.43753 -44.83692 23200 ft 377 kts 77°
2026-05-06 19:24 -23.43137 -44.80934 22786 ft 373 kts 78°
2026-05-06 19:24 -23.42531 -44.78204 22395 ft 369 kts 78°
2026-05-06 19:24 -23.41931 -44.75503 21986 ft 365 kts 78°
2026-05-06 19:24 -23.41335 -44.72828 21589 ft 362 kts 78°
2026-05-06 19:25 -23.40743 -44.70175 21186 ft 359 kts 78°
2026-05-06 19:25 -23.40157 -44.67548 20786 ft 356 kts 78°
2026-05-06 19:25 -23.39581 -44.64978 20397 ft 353 kts 78°
2026-05-06 19:25 -23.39001 -44.62392 20009 ft 350 kts 78°
2026-05-06 19:26 -23.38425 -44.59825 19612 ft 348 kts 78°
2026-05-06 19:26 -23.37853 -44.57276 19222 ft 346 kts 78°
2026-05-06 19:26 -23.37286 -44.54740 18836 ft 344 kts 78°
2026-05-06 19:26 -23.36718 -44.52221 18448 ft 342 kts 78°
2026-05-06 19:27 -23.36154 -44.49718 18029 ft 339 kts 78°
2026-05-06 19:27 -23.35595 -44.47235 17643 ft 336 kts 78°
2026-05-06 19:27 -23.35044 -44.44778 17262 ft 333 kts 78°
2026-05-06 19:27 -23.34460 -44.42358 16886 ft 330 kts 72°
2026-05-06 19:28 -23.33556 -44.40065 16516 ft 329 kts 66°
2026-05-06 19:28 -23.32592 -44.37822 16142 ft 326 kts 66°
2026-05-06 19:28 -23.31636 -44.35597 15773 ft 324 kts 66°
2026-05-06 19:28 -23.30686 -44.33385 15408 ft 322 kts 66°
2026-05-06 19:29 -23.29744 -44.31189 15045 ft 319 kts 66°
2026-05-06 19:29 -23.28806 -44.29005 14675 ft 318 kts 66°
2026-05-06 19:29 -23.27872 -44.26833 14330 ft 316 kts 65°
2026-05-06 19:29 -23.26943 -44.24679 13984 ft 314 kts 65°
2026-05-06 19:30 -23.26015 -44.22533 13570 ft 312 kts 65°
2026-05-06 19:30 -23.25095 -44.20405 13210 ft 310 kts 65°
2026-05-06 19:30 -23.24185 -44.18295 12854 ft 308 kts 65°
2026-05-06 19:30 -23.23282 -44.16197 12499 ft 305 kts 65°
2026-05-06 19:31 -23.22387 -44.14118 12146 ft 302 kts 65°
2026-05-06 19:31 -23.21501 -44.12060 11793 ft 300 kts 65°
2026-05-06 19:31 -23.19747 -44.07987 11101 ft 295 kts 64°
2026-05-06 19:32 -23.18856 -44.05990 10948 ft 293 kts 63°
2026-05-06 19:32 -23.17945 -44.04008 10800 ft 293 kts 63°
2026-05-06 19:32 -23.17029 -44.02037 10640 ft 291 kts 63°
2026-05-06 19:32 -23.16119 -44.00079 10488 ft 290 kts 63°
2026-05-06 19:33 -23.15221 -43.98114 10330 ft 290 kts 64°
2026-05-06 19:33 -23.14363 -43.96140 10173 ft 290 kts 64°
2026-05-06 19:33 -23.13463 -43.94022 9998 ft 327 kts 65°
2026-05-06 19:33 -23.12488 -43.91711 9813 ft 348 kts 65°
2026-05-06 19:34 -23.11432 -43.89213 9606 ft 377 kts 65°
2026-05-06 19:34 -23.10316 -43.86585 9399 ft 386 kts 65°
2026-05-06 19:34 -23.09186 -43.83934 9187 ft 387 kts 65°
2026-05-06 19:34 -23.08053 -43.81291 8980 ft 385 kts 65°
2026-05-06 19:35 -23.06923 -43.78665 8702 ft 381 kts 65°
2026-05-06 19:35 -23.05824 -43.76115 8293 ft 367 kts 65°
2026-05-06 19:35 -23.04745 -43.73606 8174 ft 368 kts 65°
2026-05-06 19:35 -23.03666 -43.71091 8094 ft 367 kts 65°
2026-05-06 19:36 -23.02590 -43.68587 7847 ft 366 kts 65°
2026-05-06 19:36 -23.01504 -43.66091 7487 ft 365 kts 64°
2026-05-06 19:36 -23.00419 -43.63617 7166 ft 362 kts 64°
2026-05-06 19:36 -22.99702 -43.61985 6954 ft 362 kts 64°
2026-05-06 19:37 -22.98626 -43.59538 6758 ft 353 kts 64°
2026-05-06 19:37 -22.97601 -43.57205 6639 ft 333 kts 64°
2026-05-06 19:37 -22.96627 -43.54999 6512 ft 315 kts 64°
2026-05-06 19:37 -22.95705 -43.52919 6434 ft 296 kts 64°
2026-05-06 19:38 -22.94841 -43.50964 6238 ft 280 kts 64°
2026-05-06 19:38 -22.94020 -43.49076 5867 ft 275 kts 64°
2026-05-06 19:38 -22.93230 -43.47210 5536 ft 271 kts 65°
2026-05-06 19:38 -22.92450 -43.45355 5207 ft 269 kts 65°
2026-05-06 19:39 -22.91675 -43.43508 4920 ft 268 kts 65°
2026-05-06 19:39 -22.90908 -43.41683 4615 ft 264 kts 65°
2026-05-06 19:39 -22.90149 -43.39882 4291 ft 261 kts 65°
2026-05-06 19:39 -22.89396 -43.38107 3978 ft 257 kts 65°
2026-05-06 19:40 -22.88650 -43.36352 3676 ft 256 kts 65°
2026-05-06 19:40 -22.87960 -43.34583 3366 ft 254 kts 69°
2026-05-06 19:40 -22.87364 -43.32809 3064 ft 253 kts 70°
2026-05-06 19:40 -22.86782 -43.30989 2750 ft 252 kts 70°
2026-05-06 19:41 -22.86226 -43.29224 2444 ft 250 kts 71°
2026-05-06 19:41 -22.85670 -43.27443 2152 ft 249 kts 72°
2026-05-06 19:41 -22.85543 -43.25639 1845 ft 232 kts 97°
2026-05-06 19:41 -22.85772 -43.23997 1552 ft 208 kts 98°
2026-05-06 19:42 -22.85990 -43.22518 1280 ft 190 kts 99°
2026-05-06 19:42 -22.86191 -43.21151 1076 ft 174 kts 99°
2026-05-06 19:42 -22.86369 -43.19911 805 ft 159 kts 102°
2026-05-06 19:42 -22.86654 -43.18830 610 ft 141 kts 124°
2026-05-06 19:43 -22.87221 -43.18043 620 ft 130 kts 132°
2026-05-06 19:43 -22.87824 -43.17275 607 ft 143 kts 135°
2026-05-06 19:43 -22.88588 -43.16566 555 ft 139 kts 155°
2026-05-06 19:43 -22.89510 -43.16386 311 ft 130 kts 175°
2026-05-06 19:44 -22.90413 -43.16326 60 ft 128 kts 176°
2026-05-06 19:44 -22.91196 -43.16270 50 ft 114 kts 178°
2026-05-06 19:44 -22.92068 -43.16212 466 ft 134 kts 173°
2026-05-06 19:44 -22.93040 -43.15965 954 ft 157 kts 146°
2026-05-06 19:45 -22.93751 -43.14978 1381 ft 178 kts 108°
2026-05-06 19:45 -22.93741 -43.13590 1731 ft 196 kts 71°
2026-05-06 19:45 -22.92872 -43.12427 2359 ft 203 kts 40°
2026-05-06 19:45 -22.91843 -43.11393 3052 ft 202 kts 49°
2026-05-06 19:46 -22.90952 -43.10213 3742 ft 203 kts 52°
2026-05-06 19:46 -22.90077 -43.08992 3990 ft 206 kts 52°
2026-05-06 19:46 -22.89191 -43.07766 4047 ft 207 kts 51°
2026-05-06 19:46 -22.88290 -43.06555 4047 ft 206 kts 47°
2026-05-06 19:47 -22.87059 -43.05820 4042 ft 206 kts 12°
2026-05-06 19:47 -22.85674 -43.05995 3880 ft 198 kts 342°
2026-05-06 19:47 -22.84441 -43.06583 3697 ft 191 kts 336°
2026-05-06 19:47 -22.83247 -43.07193 3399 ft 189 kts 336°
2026-05-06 19:48 -22.82060 -43.07804 3023 ft 189 kts 333°
2026-05-06 19:48 -22.81016 -43.08678 2672 ft 191 kts 319°
2026-05-06 19:48 -22.80251 -43.09833 2281 ft 193 kts 300°
2026-05-06 19:48 -22.79672 -43.11165 2071 ft 194 kts 294°
2026-05-06 19:49 -22.79521 -43.12569 1943 ft 186 kts 267°
2026-05-06 19:49 -22.79708 -43.13867 1810 ft 166 kts 243°
2026-05-06 19:49 -22.80417 -43.14752 1649 ft 146 kts 212°
2026-05-06 19:49 -22.81253 -43.15279 1396 ft 135 kts 200°
2026-05-06 19:50 -22.82134 -43.15577 1067 ft 130 kts 188°
2026-05-06 19:50 -22.83017 -43.15787 1028 ft 135 kts 188°
2026-05-06 19:50 -22.83955 -43.15982 1026 ft 139 kts 188°
2026-05-06 19:50 -22.84914 -43.16168 1020 ft 139 kts 188°
2026-05-06 19:51 -22.85872 -43.16335 1011 ft 141 kts 186°
2026-05-06 19:51 -22.86841 -43.16472 866 ft 139 kts 184°
2026-05-06 19:51 -22.87771 -43.16503 671 ft 130 kts 174°
2026-05-06 19:51 -22.88659 -43.16443 435 ft 126 kts 173°
2026-05-06 19:52 -22.89523 -43.16382 231 ft 123 kts 175°
2026-05-06 19:52 -22.90377 -43.16325 61 ft 123 kts 176°
2026-05-06 19:52 -22.91140 -43.16275 30 ft 105 kts 176°
2026-05-06 19:52 -22.91955 -43.16209 421 ft 126 kts 170°
2026-05-06 19:53 -22.92661 -43.15700 956 ft 132 kts 112°
2026-05-06 19:53 -22.92514 -43.14623 1027 ft 173 kts 58°
2026-05-06 19:53 -22.91376 -43.13960 1250 ft 205 kts
2026-05-06 19:53 -22.89941 -43.13917 1940 ft 208 kts
2026-05-06 19:54 -22.88494 -43.13986 2322 ft 215 kts 357°
2026-05-06 19:54 -22.87093 -43.14286 2388 ft 199 kts 337°
2026-05-06 19:54 -22.86246 -43.15413 2020 ft 204 kts 283°
2026-05-06 19:54 -22.86570 -43.16882 1390 ft 212 kts 224°
2026-05-06 19:55 -22.87923 -43.17182 1120 ft 211 kts 170°
2026-05-06 19:55 -22.89270 -43.16915 2387 ft 183 kts 164°
2026-05-06 19:55 -22.90415 -43.16411 3260 ft 184 kts 138°
2026-05-06 19:55 -22.91144 -43.15300 3665 ft 168 kts 111°
2026-05-06 19:56 -22.91221 -43.14174 3587 ft 142 kts 74°
2026-05-06 19:56 -22.90631 -43.13397 3249 ft 132 kts 32°
2026-05-06 19:56 -22.89827 -43.12931 2865 ft 131 kts 27°
2026-05-06 19:56 -22.88996 -43.12521 2473 ft 132 kts 22°
2026-05-06 19:57 -22.88097 -43.12349 2154 ft 131 kts
2026-05-06 19:57 -22.87194 -43.12274 1763 ft 133 kts
2026-05-06 19:57 -22.86255 -43.12360 1321 ft 139 kts 336°
2026-05-06 19:57 -22.85650 -43.13155 973 ft 142 kts 293°
2026-05-06 19:58 -22.85328 -43.14176 999 ft 147 kts 280°
2026-05-06 19:58 -22.85342 -43.15271 984 ft 147 kts 246°
2026-05-06 19:58 -22.85999 -43.16036 897 ft 137 kts 203°
2026-05-06 19:58 -22.86874 -43.16363 768 ft 129 kts 185°
2026-05-06 19:59 -22.87755 -43.16432 599 ft 125 kts 179°
2026-05-06 19:59 -22.88619 -43.16428 407 ft 124 kts 176°
2026-05-06 19:59 -22.89472 -43.16383 246 ft 123 kts 175°
2026-05-06 19:59 -22.90323 -43.16327 71 ft 122 kts 176°
2026-05-06 20:00 -22.91094 -43.16278 22 ft 91 kts 176°
2026-05-06 20:00 -22.91329 -43.16284 22 ft 13 kts 214°
2026-05-06 20:00 -22.91347 -43.16393 21 ft 16 kts 268°
2026-05-06 20:00 -22.91332 -43.16500 23 ft 14 kts 326°
2026-05-06 20:01 -22.91316 -43.16534 22 ft 2 kts 274°
2026-05-06 20:01 -22.91318 -43.16559 22 ft 5 kts 264°
2026-05-06 20:01 -22.91318 -43.16575 22 ft 1 kts 269°
2026-05-06 20:01 -22.91319 -43.16577 22 ft 0 kts 268°
2026-05-06 20:02 -22.91319 -43.16578 22 ft 0 kts 267°